Regional Weather Roundup
Issued by NWS

Home | Current Version | Previous Version | Text Only | Print | Product List | Glossary Off
Versions: 1 2 3 4 5 6 7 8 9 10 11 12 13 14 15 16 17 18 19 20 21 22 23 24 25 26 27 28 29 30 31 32 33 34 35 36 37 38 39 40 41 42 43 44 45 46 47 48 49 50

000
ASUS43 KLSX 301307
RWRMO

WEATHER SUMMARY FOR MISSOURI
NATIONAL WEATHER SERVICE SPRINGFIELD MO
800 AM CDT SAT AUG 30 2014

NOTE: "FAIR" INDICATES FEW OR NO CLOUDS BELOW 12,000 FEET WITH NO
       SIGNIFICANT WEATHER AND/OR OBSTRUCTIONS TO VISIBILITY.
       CURRENT SKY AND/OR WEATHER CONDITIONS ARE NOT AVAILABLE FOR
       CHILLICOTHE AND FARMINGTON.

MOZ001>031-035>038-043-044-053-054-301400-
...NORTHERN AND WESTERN MISSOURI...

CITY           SKY/WX    TMP DP  RH WIND       PRES   REMARKS
KANSAS CTY INT MOSUNNY   69  67  93 W6        29.93R
KANSAS C DTWN  SUNNY     72  67  84 W6        29.92R
LEE`S SUMMIT   SUNNY     71  67  87 SW7       29.94R
ST JOSEPH      SUNNY     68  67  96 CALM      29.92R
CHILLICOTHE      N/A     72  68  87 CALM      29.92R
KIRKSVILLE     SUNNY     71  68  90 SW5       29.91R

$$
MOZ066>068-077>081-088>096-101>105-301400-
...SOUTHWEST MISSOURI...

CITY           SKY/WX    TMP DP  RH WIND       PRES   REMARKS
SPRINGFIELD    PTSUNNY   71  66  84 S8        29.98R
JOPLIN         MOSUNNY   73  70  90 S8        29.97R

$$
MOZ032>034-039>042-045>050-055>058-069>072-301400-
...CENTRAL MISSOURI...

CITY           SKY/WX    TMP DP  RH WIND       PRES   REMARKS
COLUMBIA       MOSUNNY   72  70  93 SW5       29.93S
JEFFERSON CITY MOSUNNY   73  68  84 S5        29.93R
ROLLA          SUNNY     71  68  90 S10       29.94F
SEDALIA        SUNNY     74  69  85 SW10      29.94R
WHITEMAN AFB   SUNNY     72  69  88 SW9       29.92S
OSAGE BEACH    PTSUNNY   72  66  83 S6        29.95R

$$
MOZ051-052-059>065-301400-
...EAST CENTRAL MISSOURI...

CITY           SKY/WX    TMP DP  RH WIND       PRES   REMARKS
ST LOUIS INTL  PTSUNNY   76  68  76 S8        29.95R
SPIRIT OF STL  PTSUNNY   73  68  84 CALM      29.94R
ST CHARLES     PTSUNNY   73  69  87 SW3       29.93R

$$
MOZ072>076-082>087-097>100-106>115-301400-
...SOUTH CENTRAL AND SOUTHEAST MISSOURI...

CITY           SKY/WX    TMP DP  RH WIND       PRES   REMARKS
CAPE GIRARDEAU LGT RAIN  74  71  91 NW7       30.01R
FARMINGTON     PTSUNNY   72  68  88 S12       30.02R
POPLAR BLUFF   CLOUDY    74  69  85 N3        29.99S
WEST PLAINS    PTSUNNY   72  68  87 S7        30.02R

$$



USA.gov is the U.S. government's official web portal to all federal, state and local government web resources and services.